Terminal Aerodrome Forecast
Issued by NWS Charleston, WV

Current Version | Previous Version | Text Only | Print | Product List | Glossary Off
Versions: 1 2 3 4 5 6 7 8 9 10 11 12 13 14 15 16 17 18 19 20 21 22 23 24 25 26 27 28 29 30

000
FTUS41 KRLX 190200 AAA
TAFBKW
TAF AMD
KBKW 190232Z 1903/1924 VRB03KT P6SM BKN060
     FM190900 32005KT P6SM BKN025
     FM191700 30005KT P6SM SCT035 SCT250=

USA.gov is the U.S. government's official web portal to all federal, state and local government web resources and services.